Flag for U.S.A. Weather past 2 weeks in Chattanooga, Tennessee, U.S.A.

Now
78 °F

Clear.


Feels Like: 81 °F
Forecast: 76 / 92 °F
Wind: No wind

Location: Lovell Field

Current Time: Jul 28, 2015 at 4:39:37 AM

Latest Report: Jul 28, 2015 at 3:53 AM


Visibility: 9 mi

Pressure: 29.94 "Hg

Humidity: 87%

Dew point: 74 °F

Location of ChattanoogaLocation

Historic Weather in Chattanooga — Graph

°F

Chattanooga temperature yesterday

Maximum temperature yesterday: 93 °F (at 1:53 PM)
Minimum temperature yesterday: 75 °F (at 3:53 AM)
Average temperature yesterday: 83 °F

Past Weeks' High & Low Weather Summary

 TemperatureHumidityPressure
High95 °F (Jul 20, 4:53 PM)94% (Jul 18, 5:53 AM)30.04 "Hg (Jul 18, 5:53 AM)
Low69 °F (Jul 16, 6:53 AM)37% (Jul 16, 5:53 PM)29.69 "Hg (Jul 14, 4:53 PM)
Average82 °F72%29.92 "Hg
* Reported Jul 13 2:53 AM — Jul 28 2:53 AM, Chattanooga, Weather by CustomWeather, © 2015

Note: Actual official high and low records may vary slightly from our data, if they occured in-between our weather recording intervals... More about our weather records

Advertising

Chattanooga weather history for previous 24 hours

 ConditionsComfort  
Time TempWeatherWind HumidityBarometerVisibility
2:53 AM
Tue, Jul 28
78 °FClear.No wind90%29.95 "Hg10 mi
1:53 AM79 °FClear.No wind88%29.96 "Hg10 mi
12:53 AM80 °FClear.No wind85%29.98 "Hg10 mi
11:53 PM
Mon, Jul 27
80 °FPartly cloudy.3 mph87%29.98 "Hg10 mi
10:53 PM81 °FPartly cloudy.No wind82%29.97 "Hg10 mi
9:53 PM86 °FPartly cloudy.No wind65%29.94 "Hg10 mi
8:53 PM87 °FBroken clouds.5 mph63%29.93 "Hg10 mi
7:53 PM90 °FBroken clouds.5 mph54%29.91 "Hg10 mi
6:53 PM92 °FBroken clouds.3 mph51%29.92 "Hg10 mi
4:53 PM90 °FBroken clouds.5 mph54%29.93 "Hg10 mi
3:53 PM93 °FBroken clouds.5 mph47%29.94 "Hg10 mi
2:53 PM91 °FBroken clouds.5 mph52%29.95 "Hg10 mi
1:53 PM93 °FBroken clouds.8 mph49%29.96 "Hg10 mi
12:53 PM90 °FBroken clouds.5 mph56%29.98 "Hg10 mi
11:53 AM89 °FBroken clouds.No wind57%30.00 "Hg10 mi
10:53 AM85 °FScattered clouds.No wind70%30.00 "Hg10 mi
9:53 AM81 °FScattered clouds.No wind74%30.00 "Hg10 mi
8:53 AM80 °FScattered clouds.No wind79%30.00 "Hg10 mi
7:53 AM76 °FPartly sunny.No wind91%29.99 "Hg10 mi
6:53 AM75 °FPassing clouds.No wind90%29.97 "Hg7 mi
5:53 AM75 °FPassing clouds.No wind90%29.96 "Hg7 mi
4:53 AM75 °FClear.No wind90%29.95 "Hg9 mi
Weather by CustomWeather, © 2015

See weather overviewHow to use our weather pages